Location: Monza
(45.5830°N, 9.2670°E)
Time: 06:11:29
(UTC+01:00)

ISS - Visible Passes

Search period start: 20 January 2019 00:00
Search period end: 30 January 2019 00:00
Orbit: 404 x 410 km, 51.6° (Epoch: 20 January)

Date Brightness Start Highest point End Pass type
(mag) Time Alt. Az. Time Alt. Az. Time Alt. Az.
21 Jan -1.4 18:45:18 10° SSE 18:46:04 12° SE 18:46:04 12° SE visible
22 Jan -1.9 19:28:19 10° SW 19:29:55 25° SSW 19:29:55 25° SSW visible
23 Jan -2.6 18:37:24 10° SSW 18:40:15 27° SE 18:40:56 25° ESE visible
23 Jan -0.4 20:13:23 10° WSW 20:13:40 12° W 20:13:40 12° W visible
24 Jan -1.7 17:46:55 10° S 17:49:02 16° SE 17:51:10 10° E visible
24 Jan -3.2 19:21:53 10° WSW 19:24:36 57° WSW 19:24:36 57° WSW visible
25 Jan -3.7 18:30:33 10° SW 18:33:48 60° SSE 18:35:27 26° ENE visible
25 Jan -0.7 20:07:24 10° W 20:08:10 15° WNW 20:08:10 15° WNW visible
26 Jan -3.1 19:15:45 10° W 19:18:58 46° NNW 19:18:58 46° NNW visible
27 Jan -3.6 18:24:10 10° WSW 18:27:27 68° NNW 18:29:41 19° NE visible
27 Jan -0.9 20:01:28 10° WNW 20:02:24 16° WNW 20:02:24 16° WNW visible
28 Jan -2.6 19:09:45 10° WNW 19:12:47 32° NNW 19:13:05 31° N visible
29 Jan -2.9 18:18:02 10° W 18:21:11 40° NNW 18:23:44 14° NE visible
29 Jan -1.1 19:55:21 10° WNW 19:56:27 17° NW 19:56:27 17° NW visible
